This demonstration page uses our WeatherBlox Daily Observations layout. Learn more.

Left ArrowRight Arrow

Hourly Observations for August 10, 2022

Temp ( °F °C ) Dew Point ( °F °C ) Humidity (%) Winds ( mph kmh ) Pressure ( in mb ) Visibility ( mi km ) Precip ( " mm )
12:15 am 00:15 Clear 66 19 61 16 83 83 SSE 6 9 30.08 1019 10 16 0.00 0.00
12:35 am 00:35 Clear 65 18.2 60 15.7 85 85 SSE 3 6 30.09 1019 10 16 0.00 0.00
12:55 am 00:55 Clear 65 18.1 60 15.7 86 86 SSE 8 13 30.09 1019 10 16 0.00 0.00
1:15 am 01:15 Clear 66 19 61 15.9 82 82 SSE 8 13 30.08 1019 10 16 0.00 0.00
1:35 am 01:35 Clear 65 18.5 60 15.8 84 84 S 7 11 30.09 1019 10 16 0.00 0.00
1:55 am 01:55 Clear 65 18.5 60 15.7 84 84 SSE 7 11 30.09 1019 10 16 0.00 0.00
2:15 am 02:15 Clear 64 18 60 15.5 85 85 SSE 6 9 30.09 1019 10 16 0.00 0.00
2:35 am 02:35 Clear 63 17.3 60 15.3 88 88 S 3 6 30.11 1020 10 16 0.00 0.00
2:55 am 02:55 Clear 63 17 59 15.2 89 89 S 6 9 30.10 1019 10 16 0.00 0.00
3:15 am 03:15 Clear 62 16.7 59 15.1 90 90 S 7 11 30.10 1019 10 16 0.00 0.00
3:35 am 03:35 Clear 63 17 59 15.2 89 89 S 7 11 30.10 1019 10 16 0.00 0.00
3:55 am 03:55 Clear 64 17.9 60 15.3 85 85 SSW 8 13 30.09 1019 10 16 0.00 0.00
4:15 am 04:15 Clear 65 18.1 60 15.4 84 84 S 7 11 30.09 1019 10 16 0.00 0.00
4:35 am 04:35 Clear 64 17.5 59 15.1 86 86 SW 5 7 30.11 1020 10 16 0.00 0.00
4:55 am 04:55 Clear 64 17.7 59 15.1 85 85 SW 5 7 30.11 1020 10 16 0.00 0.00
5:15 am 05:15 Clear 65 18.3 60 15.5 84 84 SW 6 9 30.10 1019 10 16 0.00 0.00
5:35 am 05:35 Clear 65 18.3 60 15.3 83 83 WSW 5 7 30.10 1019 10 16 0.00 0.00
5:55 am 05:55 Clear 65 18.5 59 15.1 81 81 SW 5 7 30.10 1019 10 16 0.00 0.00
6:15 am 06:15 Clear 62 16.5 58 14.6 89 89 SE 3 6 30.14 1020 10 16 0.00 0.00
6:35 am 06:35 Clear 60 15.5 58 14.5 94 94 SE 5 7 30.16 1021 10 16 0.00 0.00
6:55 am 06:55 Sunny 59 14.9 57 14 94 94 ESE 5 7 30.17 1022 10 16 0.00 0.00
7:15 am 07:15 Sunny 59 15 57 14.1 94 94 ESE 3 6 30.17 1022 10 16 0.00 0.00
7:35 am 07:35 Sunny 61 16 59 15 94 94 ESE 3 6 30.17 1022 10 16 0.00 0.00
7:55 am 07:55 Sunny 63 17.4 60 15.8 90 90 SE 5 7 30.16 1021 10 16 0.00 0.00
8:15 am 08:15 Sunny 65 18.4 62 16.4 88 88 SSE 3 6 30.16 1021 10 16 0.00 0.00
8:35 am 08:35 Sunny 68 19.8 62 16.8 83 83 S 5 7 30.15 1021 10 16 0.00 0.00
8:55 am 08:55 Sunny 70 21.1 62 16.6 75 75 SSE 5 7 30.14 1021 10 16 0.00 0.00
9:15 am 09:15 Partly Cloudy 72 22.2 62 16.6 71 71 S 5 7 30.13 1020 10 16 0.00 0.00
9:35 am 09:35 Partly Cloudy 74 23.2 62 16.7 67 67 S 5 7 30.12 1020 10 16 0.00 0.00
9:55 am 09:55 Partly Cloudy 76 24.3 62 16.9 63 63 S 6 9 30.11 1020 10 16 0.00 0.00
10:15 am 10:15 Sunny 78 25.3 63 17 60 60 SSW 5 7 30.10 1019 10 16 0.00 0.00
10:35 am 10:35 Sunny 79 26.3 64 17.6 59 59 SSW 5 7 30.10 1019 10 16 0.00 0.00
10:55 am 10:55 Sunny 81 27.1 63 17.3 55 55 S 3 6 30.09 1019 10 16 0.00 0.00
11:15 am 11:15 Sunny 82 27.6 64 18 56 56 Calm 30.09 1019 10 16 0.00 0.00
11:35 am 11:35 Sunny 83 28.2 65 18.3 55 55 SSE 6 9 30.08 1019 10 16 0.00 0.00
11:55 am 11:55 Sunny 84 28.9 65 18.5 53 53 S 7 11 30.08 1018 10 16 0.00 0.00
12:15 pm 12:15 Sunny 85 29.6 66 18.7 52 52 SSE 7 11 30.07 1018 10 16 0.00 0.00
12:35 pm 12:35 Sunny 86 30 67 19.5 53 53 SSE 7 11 30.07 1018 10 16 0.00 0.00
12:55 pm 12:55 Sunny 87 30.3 66 19 51 51 S 6 9 30.06 1018 10 16 0.00 0.00
1:15 pm 13:15 Sunny 88 31.1 66 18.7 48 48 SSE 9 15 30.05 1018 10 16 0.00 0.00
1:35 pm 13:35 Sunny 88 31.2 64 18 45 45 S 7 11 30.05 1018 10 16 0.00 0.00
1:55 pm 13:55 Sunny 89 31.6 64 17.6 43 43 S 7 11 30.03 1017 10 16 0.00 0.00
2:15 pm 14:15 Sunny 90 32.1 65 18.2 44 44 S 7 11 30.03 1017 10 16 0.00 0.00
2:35 pm 14:35 Sunny 90 32.1 65 18.2 44 44 SSE 8 13 30.02 1017 10 16 0.00 0.00
2:55 pm 14:55 Sunny 90 32.3 63 17.3 41 41 S 8 13 30.02 1017 10 16 0.00 0.00
3:15 pm 15:15 Sunny 91 32.6 63 17.1 40 40 S 9 15 30.02 1016 10 16 0.00 0.00
3:35 pm 15:35 Sunny 91 33 60 15.4 35 35 S 8 13 30.01 1016 10 16 0.00 0.00
3:50 pm 15:50 Sunny 92 33.1 60 15.8 35 35 S 8 13 30.01 1016 10 16 0.00 0.00
4:15 pm 16:15 Sunny 91 32.7 62 16.5 38 38 SSE 8 13 30.00 1016 10 16 0.00 0.00
4:35 pm 16:35 Sunny 91 32.8 62 16.6 38 38 S 9 15 30.00 1016 10 16 0.00 0.00
4:55 pm 16:55 Sunny 91 32.9 63 17 39 39 SSE 9 15 30.00 1016 10 16 0.00 0.00
5:15 pm 17:15 Sunny 91 32.5 63 17.3 40 40 SSE 7 11 30.01 1016 10 16 0.00 0.00
5:35 pm 17:35 Sunny 91 32.5 65 18.2 43 43 S 8 13 30.00 1016 10 16 0.00 0.00
5:55 pm 17:55 Sunny 90 32.3 63 17.2 41 41 S 8 13 29.99 1016 10 16 0.00 0.00
6:15 pm 18:15 Sunny 90 32 65 18.6 45 45 SSE 7 11 29.99 1016 10 16 0.00 0.00
6:35 pm 18:35 Sunny 89 31.5 65 18.2 45 45 S 7 11 29.98 1015 10 16 0.00 0.00
6:55 pm 18:55 Sunny 88 31 65 18.4 47 47 SSE 5 7 29.99 1016 10 16 0.00 0.00
7:15 pm 19:15 Sunny 87 30.3 65 18.4 49 49 S 5 7 29.99 1015 10 16 0.00 0.00
7:35 pm 19:35 Sunny 85 29.2 67 19.4 56 56 S 7 11 29.99 1016 10 16 0.00 0.00
7:55 pm 19:55 Sunny 82 27.9 68 19.8 61 61 S 7 11 30.00 1016 10 16 0.00 0.00
8:15 pm 20:15 Sunny 80 26.4 67 19.5 66 66 S 8 13 30.02 1016 10 16 0.00 0.00
8:35 pm 20:35 Sunny 77 25.1 66 18.9 69 69 S 7 11 30.03 1017 10 16 0.00 0.00
8:55 pm 20:55 Clear 76 24.3 65 18.2 69 69 SSE 8 13 30.04 1017 10 16 0.00 0.00
9:15 pm 21:15 Clear 74 23.5 64 17.7 70 70 S 7 11 30.06 1018 10 16 0.00 0.00
9:35 pm 21:35 Clear 73 22.8 64 18 74 74 SSE 8 13 30.07 1018 10 16 0.00 0.00
9:55 pm 21:55 Clear 73 22.5 64 17.9 75 75 S 8 13 30.08 1018 10 16 0.00 0.00
10:15 pm 22:15 Clear 72 22 64 17.7 77 77 SSE 7 11 30.08 1019 10 16 0.00 0.00
10:35 pm 22:35 Clear 71 21.7 64 17.5 77 77 S 7 11 30.08 1019 10 16 0.00 0.00
10:55 pm 22:55 Clear 71 21.5 64 17.5 78 78 SSE 6 9 30.09 1019 10 16 0.00 0.00
11:15 pm 23:15 Clear 70 21.3 64 17.5 79 79 S 7 11 30.10 1019 10 16 0.00 0.00
11:35 pm 23:35 Clear 68 20.1 64 17.6 86 86 SSE 7 11 30.10 1019 10 16 0.00 0.00
11:55 pm 23:55 Clear 69 20.4 64 17.6 84 84 SSE 7 11 30.10 1019 10 16 0.00 0.00

Powered by AerisWeather